When you browse on this site, cookies collect data to enhance your experience and personalize the content and advertising you see.
Visit our Privacy Policy to learn more. By continuing to use the site, you agree to this use of cookies and data.
  • în România
  • Lista ţărilor
  • Pe 7 zile
  • Temperatura apei
  • Hartă satelitară
  • Meteo pe hartă
  • Widget-uri
  • user-avatar
    Intrare

    Meteo pe oră la Pszenno

    Astăzi, 24 Februarie, Duminică

    Timp Temperatura Precipitaţii Vânt Presiune Umiditate
    00:00 -1°C° 0 mm 1 m/s 761 mmHg 36%
    01:00 -1°C° 0 mm 1 m/s 761 mmHg 35%
    02:00 0°C° 0 mm 1 m/s 760 mmHg 34%
    03:00 0°C° 0 mm 1 m/s 760 mmHg 33%
    04:00 -1°C° 0 mm 0 m/s 760 mmHg 32%
    05:00 -1°C° 0 mm 0 m/s 760 mmHg 32%
    06:00 0°C° 0 mm 0 m/s 760 mmHg 32%
    07:00 0°C° 0 mm 0 m/s 760 mmHg 31%
    08:00 +1°C° 0 mm 0 m/s 760 mmHg 30%
    09:00 +3°C° 0 mm 1 m/s 759 mmHg 29%
    10:00 +4°C° 0 mm 1 m/s 759 mmHg 29%
    11:00 +5°C° 0 mm 1 m/s 759 mmHg 29%
    12:00 +7°C° 0 mm 1 m/s 759 mmHg 28%
    13:00 +7°C° 0 mm 2 m/s 759 mmHg 28%
    14:00 +7°C° 0 mm 2 m/s 759 mmHg 34%
    15:00 +7°C° 0 mm 2 m/s 759 mmHg 40%
    16:00 +6°C° 0 mm 2 m/s 759 mmHg 45%
    17:00 +5°C° 0 mm 2 m/s 759 mmHg 48%
    18:00 +4°C° 0 mm 2 m/s 758 mmHg 51%
    19:00 +2°C° 0 mm 2 m/s 758 mmHg 54%
    20:00 +2°C° 0 mm 2 m/s 759 mmHg 55%
    21:00 +2°C° 0 mm 2 m/s 759 mmHg 56%
    22:00 +2°C° 0 mm 2 m/s 759 mmHg 57%
    23:00 +2°C° 0 mm 2 m/s 759 mmHg 58%

    Mâine, 25 Februarie, Luni

    Timp Temperatura Precipitaţii Vânt Presiune Umiditate
    00:00 +2°C° 0 mm 2 m/s 759 mmHg 58%
    01:00 +2°C° 0 mm 2 m/s 759 mmHg 59%
    02:00 +2°C° 0 mm 2 m/s 759 mmHg 60%
    03:00 +2°C° 0 mm 2 m/s 758 mmHg 61%
    04:00 +2°C° 0 mm 2 m/s 758 mmHg 62%
    05:00 +2°C° 0 mm 2 m/s 758 mmHg 64%
    06:00 +2°C° 0 mm 2 m/s 758 mmHg 65%
    07:00 +1°C° 0 mm 2 m/s 758 mmHg 67%
    08:00 +2°C° 0 mm 3 m/s 758 mmHg 62%
    09:00 +4°C° 0 mm 3 m/s 758 mmHg 56%
    10:00 +6°C° 0 mm 4 m/s 758 mmHg 51%
    11:00 +7°C° 0 mm 4 m/s 758 mmHg 51%
    12:00 +8°C° 0 mm 4 m/s 758 mmHg 51%
    13:00 +8°C° 0 mm 4 m/s 758 mmHg 51%
    14:00 +8°C° 0 mm 4 m/s 757 mmHg 54%
    15:00 +9°C° 0 mm 3 m/s 757 mmHg 58%
    16:00 +9°C° 0 mm 3 m/s 756 mmHg 62%
    17:00 +8°C° 0 mm 3 m/s 757 mmHg 66%
    18:00 +5°C° 0 mm 3 m/s 757 mmHg 71%
    19:00 +4°C° 0 mm 3 m/s 757 mmHg 75%
    20:00 +3°C° 0 mm 3 m/s 757 mmHg 77%
    21:00 +3°C° 0 mm 3 m/s 757 mmHg 78%
    22:00 +2°C° 0 mm 3 m/s 757 mmHg 79%
    23:00 +2°C° 0 mm 3 m/s 757 mmHg 80%

    Poimâine, 26 Februarie, Marţi

    Timp Temperatura Precipitaţii Vânt Presiune Umiditate
    00:00 +2°C° 0 mm 3 m/s 757 mmHg 80%
    01:00 +2°C° 0 mm 3 m/s 756 mmHg 81%
    02:00 +2°C° 0 mm 3 m/s 756 mmHg 80%
    03:00 +2°C° 0 mm 3 m/s 756 mmHg 80%
    04:00 +2°C° 0 mm 3 m/s 755 mmHg 80%
    05:00 +2°C° 0 mm 3 m/s 755 mmHg 81%
    06:00 +2°C° 0 mm 3 m/s 755 mmHg 82%
    07:00 +2°C° 0 mm 3 m/s 755 mmHg 83%
    08:00 +4°C° 0 mm 4 m/s 755 mmHg 73%
    09:00 +5°C° 0 mm 4 m/s 754 mmHg 63%
    10:00 +7°C° 0 mm 5 m/s 754 mmHg 53%
    11:00 +8°C° 0 mm 5 m/s 754 mmHg 51%
    12:00 +9°C° 0 mm 6 m/s 754 mmHg 49%
    13:00 +9°C° 0 mm 6 m/s 754 mmHg 47%
    14:00 +9°C° 0 mm 6 m/s 754 mmHg 50%
    15:00 +9°C° 0 mm 6 m/s 753 mmHg 53%
    16:00 +9°C° 0 mm 6 m/s 753 mmHg 56%
    17:00 +8°C° 0 mm 5 m/s 753 mmHg 61%
    18:00 +7°C° 0 mm 4 m/s 753 mmHg 65%
    19:00 +6°C° 0 mm 4 m/s 754 mmHg 70%
    20:00 +5°C° 0 mm 4 m/s 754 mmHg 72%
    21:00 +5°C° 0 mm 3 m/s 754 mmHg 74%
    22:00 +4°C° 0 mm 3 m/s 754 mmHg 76%
    23:00 +4°C° 0 mm 3 m/s 754 mmHg 78%

    27 Februarie, Miercuri

    Timp Temperatura Precipitaţii Vânt Presiune Umiditate
    00:00 +5°C° 0 mm 2 m/s 754 mmHg 80%
    01:00 +4°C° 0 mm 2 m/s 754 mmHg 82%
    02:00 +4°C° 0 mm 2 m/s 754 mmHg 84%
    03:00 +4°C° 0 mm 2 m/s 753 mmHg 85%
    04:00 +5°C° 0 mm 1 m/s 753 mmHg 86%
    05:00 +5°C° 0 mm 1 m/s 753 mmHg 86%
    06:00 +4°C° 0 mm 1 m/s 753 mmHg 86%
    07:00 +4°C° 0 mm 1 m/s 753 mmHg 85%
    08:00 +5°C° 0 mm 2 m/s 753 mmHg 76%
    09:00 +7°C° 0 mm 2 m/s 753 mmHg 68%
    10:00 +9°C° 0 mm 2 m/s 753 mmHg 59%
    11:00 +10°C° 0 mm 2 m/s 752 mmHg 54%
    12:00 +12°C° 0 mm 3 m/s 752 mmHg 49%
    13:00 +13°C° 0 mm 3 m/s 751 mmHg 44%
    14:00 +13°C° 0 mm 3 m/s 751 mmHg 46%
    15:00 +14°C° 0 mm 2 m/s 750 mmHg 48%
    16:00 +14°C° 0 mm 2 m/s 750 mmHg 50%
    17:00 +12°C° 0 mm 2 m/s 749 mmHg 55%
    18:00 +10°C° 0 mm 2 m/s 749 mmHg 60%
    19:00 +8°C° 0 mm 2 m/s 749 mmHg 65%
    20:00 +8°C° 0 mm 2 m/s 749 mmHg 65%
    21:00 +7°C° 0 mm 2 m/s 749 mmHg 65%
    22:00 +7°C° 0 mm 2 m/s 748 mmHg 65%
    23:00 +7°C° 0 mm 2 m/s 748 mmHg 64%

    28 Februarie, Joi

    Timp Temperatura Precipitaţii Vânt Presiune Umiditate
    00:00 +7°C° 0 mm 3 m/s 748 mmHg 63%
    01:00 +7°C° 0 mm 3 m/s 747 mmHg 61%
    02:00 +5°C° 0 mm 3 m/s 747 mmHg 61%
    03:00 +5°C° 0 mm 3 m/s 746 mmHg 62%
    04:00 +5°C° 0 mm 3 m/s 746 mmHg 62%
    05:00 +5°C° 0 mm 3 m/s 745 mmHg 63%
    06:00 +4°C° 0 mm 3 m/s 745 mmHg 63%
    07:00 +4°C° 0 mm 3 m/s 745 mmHg 64%
    08:00 +6°C° 0 mm 4 m/s 744 mmHg 60%
    09:00 +8°C° 0 mm 5 m/s 744 mmHg 56%
    10:00 +10°C° 0 mm 6 m/s 744 mmHg 52%
    11:00 +11°C° 0 mm 6 m/s 744 mmHg 52%
    12:00 +13°C° 0 mm 6 m/s 744 mmHg 53%
    13:00 +12°C° 0 mm 7 m/s 743 mmHg 54%
    14:00 +12°C° 0 mm 7 m/s 743 mmHg 56%
    15:00 +13°C° 0 mm 6 m/s 743 mmHg 59%
    16:00 +11°C° 0 mm 6 m/s 743 mmHg 61%
    17:00 +10°C° 0 mm 6 m/s 743 mmHg 69%
    18:00 +9°C° 0 mm 5 m/s 743 mmHg 77%
    19:00 +8°C° 0 mm 4 m/s 743 mmHg 84%
    20:00 +7°C° 0 mm 4 m/s 744 mmHg 87%
    21:00 +6°C° 0 mm 4 m/s 744 mmHg 89%
    22:00 +6°C° 0 mm 4 m/s 744 mmHg 92%
    23:00 +5°C° 0 mm 4 m/s 744 mmHg 93%

    1 Martie, Vineri

    Timp Temperatura Precipitaţii Vânt Presiune Umiditate
    00:00 +5°C° 0 mm 4 m/s 744 mmHg 94%
    01:00 +4°C° 0 mm 3 m/s 744 mmHg 95%
    02:00 +4°C° 0 mm 3 m/s 744 mmHg 94%
    03:00 +4°C° 0 mm 3 m/s 744 mmHg 94%
    04:00 +4°C° 0 mm 3 m/s 744 mmHg 93%
    05:00 +3°C° 0 mm 3 m/s 745 mmHg 93%
    06:00 +3°C° 0 mm 3 m/s 745 mmHg 93%
    07:00 +3°C° 0 mm 3 m/s 745 mmHg 93%
    08:00 +4°C° 0 mm 4 m/s 745 mmHg 86%
    09:00 +5°C° 0 mm 4 m/s 745 mmHg 79%
    10:00 +6°C° 0 mm 5 m/s 746 mmHg 73%
    11:00 +6°C° 0 mm 5 m/s 746 mmHg 69%
    12:00 +7°C° 0 mm 5 m/s 746 mmHg 64%
    13:00 +7°C° 0 mm 5 m/s 746 mmHg 60%
    14:00 +7°C° 0 mm 4 m/s 746 mmHg 60%
    15:00 +7°C° 0 mm 4 m/s 746 mmHg 59%
    16:00 +7°C° 0 mm 4 m/s 745 mmHg 59%
    17:00 +7°C° 0 mm 3 m/s 746 mmHg 63%
    18:00 +5°C° 0 mm 3 m/s 746 mmHg 68%
    19:00 +5°C° 0 mm 2 m/s 746 mmHg 72%
    20:00 +4°C° 0 mm 2 m/s 747 mmHg 73%
    21:00 +4°C° 0 mm 2 m/s 747 mmHg 75%
    22:00 +3°C° 0 mm 2 m/s 747 mmHg 76%
    23:00 +3°C° 0 mm 2 m/s 748 mmHg 78%
    Arată mai mult